"America/Chicago Time","Lifetime Energy (kWh)","Power (W)","AC Volts RMS (V) ","AC Amps RMS (mA)","Grid Frequency (Hz)","Inverter Temperature (C)"
"04/09/12 12:26:23","44.6082","70.2","215.4","353","60.03","11"
"04/09/12 12:31:24","44.6159","53.9","214.9","385","60.0","11"
"04/09/12 12:36:23","44.6196","49.3","214.51","332","60.03","10"
"04/09/12 12:41:23","44.6232","52.3","214.58","120","60.0","9"
"04/09/12 12:46:24","44.6266","45.2","214.81","108","60.03","9"
"04/09/12 12:51:25","44.6305","49.0","215.32","339","60.0","9"
"04/09/12 12:56:24","44.6336","38.3","215.65","264","60.03","9"
"04/09/12 13:01:23","44.6373","51.2","215.66","201","60.0","9"
"04/09/12 13:06:24","44.6411","43.9","215.07","421","60.0","9"
"04/09/12 13:11:24","44.6446","52.6","214.32","110","60.0","9"
"04/09/12 13:16:23","44.6476","46.4","214.43","256","60.03","9"
"04/09/12 13:21:23","44.6524","63.1","215.21","318","60.0","9"
"04/09/12 13:26:23","44.6565","42.3","214.61","290","60.03","9"
"04/09/12 13:31:23","44.6592","45.2","214.79","195","60.0","9"
"04/09/12 13:36:24","44.6623","51.7","214.97","407","60.03","9"
"04/09/12 13:41:24","44.6657","37.0","214.76","286","60.0","9"
"04/09/12 13:46:25","44.6682","38.2","214.3","139","60.03","8"
"04/09/12 13:51:23","44.6713","36.2","215.58","123","60.03","8"
"04/09/12 13:56:23","44.6734","14.8","215.0","38","60.03","8"
"04/09/12 14:01:23","44.6747","8.8","214.7","272","60.0","8"
"04/09/12 14:06:24","44.6759","21.2","214.86","61","60.0","8"
"04/09/12 14:11:24","44.6771","13.7","214.54","0","60.0","7"
"04/09/12 14:16:23","44.6778","0.0","214.13","0","60.03","7"
"04/09/12 14:21:24","44.6787","15.8","214.95","42","60.03","7"
"04/09/12 14:26:24","44.6793","0.0","214.62","186","59.96","6"
"04/09/12 14:31:25","44.68","12.2","214.68","0","60.03","6"
"04/09/12 14:36:23","44.6818","27.1","215.3","162","60.03","6"
"04/09/12 14:41:24","44.6839","24.6","213.82","62","60.03","6"
"04/09/12 14:46:24","44.686","37.4","215.28","283","60.03","7"
"04/09/12 14:51:23","44.6888","59.1","215.31","139","60.0","7"
"04/09/12 14:56:24","44.6941","80.5","216.39","396","60.03","7"
"04/09/12 15:01:24","44.7006","64.0","216.04","321","60.0","8"
"04/09/12 15:06:24","44.7063","66.9","216.18","337","60.03","8"
"04/09/12 15:11:24","44.7116","41.1","215.3","132","60.03","8"
"04/09/12 15:16:25","44.7161","61.7","216.41","314","60.03","9"
"04/09/12 15:21:24","44.7213","158.5","218.1","721","60.03","9"
"04/09/12 15:26:24","44.7268","42.8","214.72","208","60.0","8"
"04/09/12 15:31:25","44.7298","53.8","215.59","379","60.03","8"
"04/09/12 15:36:23","44.7347","41.4","215.67","385","60.03","8"
"04/09/12 15:41:23","44.7381","38.8","214.82","235","60.0","8"
"04/09/12 15:46:23","44.7403","33.8","215.01","257","60.03","8"
"04/09/12 15:51:23","44.7424","24.6","214.79","63","60.03","7"
"04/09/12 15:56:23","44.7446","18.0","214.4","127","60.03","7"
"04/09/12 16:01:24","44.7462","23.2","214.18","45","60.03","7"
"04/09/12 16:06:24","44.748","17.3","214.8","237","60.03","7"
"04/09/12 16:11:24","44.7506","50.3","215.23","126","60.0","7"
"04/09/12 16:16:23","44.7532","11.6","214.39","92","60.03","6"
"04/09/12 16:21:24","44.754","0.0","213.97","0","60.0","6"
"04/09/12 16:26:23","44.7557","43.6","214.54","231","60.03","6"
"04/09/12 16:31:23","44.7585","29.3","214.73","145","60.0","6"
"04/09/12 16:36:24","44.7607","30.7","213.99","52","60.03","6"
"04/09/12 16:41:23","44.763","29.4","213.76","234","60.0","6"
"04/09/12 16:46:23","44.7651","26.3","214.42","38","60.03","6"
"04/09/12 16:51:24","44.767","29.5","214.54","74","60.03","6"
"04/09/12 16:56:24","44.7689","27.4","214.83","264","60.0","6"
"04/09/12 17:01:24","44.7718","32.5","215.19","130","60.03","7"
"04/09/12 17:06:23","44.7748","39.3","214.98","296","60.07","7"
"04/09/12 17:11:23","44.7772","30.0","214.98","304","60.03","7"
"04/09/12 17:16:24","44.7794","34.3","214.52","67","60.03","7"
"04/09/12 17:21:24","44.7815","35.8","214.99","115","60.0","7"
"04/09/12 17:31:24","44.785","29.1","214.28","56","60.03","7"
"04/09/12 17:36:24","44.7864","17.6","213.75","30","60.03","7"
"04/09/12 17:41:24","44.7877","11.5","213.98","68","60.03","7"
"04/09/12 17:46:24","44.7888","19.1","213.2","165","60.03","7"
"04/09/12 17:51:23","44.7899","14.2","213.63","243","60.03","7"
"04/09/12 17:56:23","44.7907","12.5","213.14","1","60.03","6"
"04/09/12 18:01:23","44.7913","13.4","213.99","9","60.03","6"
"04/09/12 18:06:23","44.7918","6.6","213.82","234","60.07","6"
"04/09/12 18:11:23","44.7925","6.1","213.27","158","60.03","6"
"04/09/12 18:16:25","44.7932","15.4","213.85","194","60.03","6"
"04/09/12 18:21:24","44.7935","0.0","213.63","0","60.0","6"
"04/09/12 18:26:23","44.7939","11.1","213.69","3","60.0","6"
"04/10/12 06:51:25","44.7949","0.0","214.1","0","60.03","3"
"04/10/12 06:56:24","44.7953","10.9","213.33","3","60.03","4"
"04/10/12 07:01:24","44.796","14.1","211.77","20","60.0","4"
"04/10/12 07:06:23","44.7968","16.7","211.91","130","60.0","4"
"04/10/12 07:11:23","44.798","12.4","213.09","3","60.03","4"
"04/10/12 07:16:25","44.7994","29.2","213.61","102","60.0","5"
"04/10/12 07:21:24","44.8011","16.3","213.54","141","60.0","5"
"04/10/12 07:26:23","44.8026","20.8","213.35","34","60.0","5"
"04/10/12 07:31:24","44.8041","17.1","212.95","251","60.0","5"
"04/10/12 07:36:24","44.8055","26.8","213.08","54","60.03","6"
"04/10/12 07:41:25","44.807","26.9","213.76","92","60.03","6"
"04/10/12 07:46:23","44.8085","11.3","214.01","30","60.03","6"
"04/10/12 07:51:24","44.8105","56.0","214.71","107","60.03","6"
"04/10/12 07:56:24","44.8144","55.9","213.84","279","60.03","6"
"04/10/12 08:01:24","44.8184","41.8","213.98","178","60.0","6"
"04/10/12 08:06:25","44.8223","42.0","214.3","234","60.0","6"
"04/10/12 08:11:24","44.8262","50.1","213.81","360","60.07","6"
"04/10/12 08:16:25","44.8301","66.3","214.46","346","60.03","7"
"04/10/12 08:21:25","44.8343","68.0","214.85","359","60.07","7"
"04/10/12 08:26:23","44.8388","60.6","214.81","430","60.0","7"
"04/10/12 08:31:24","44.8438","84.1","214.62","411","60.03","7"
"04/10/12 08:36:25","44.8505","87.8","215.16","428","60.03","8"
"04/10/12 08:41:24","44.8575","92.1","215.31","440","60.0","8"
"04/10/12 08:46:24","44.8647","90.5","214.84","440","60.03","8"
"04/10/12 08:51:24","44.872","99.2","215.11","475","60.0","8"
"04/10/12 08:56:24","44.8798","102.5","215.34","488","60.03","8"
"04/10/12 09:01:25","44.8878","105.9","216.0","501","60.0","9"
"04/10/12 09:06:23","44.8959","107.8","215.99","510","60.03","9"
"04/10/12 09:11:24","44.9037","100.1","215.83","479","60.03","9"
"04/10/12 09:16:25","44.9116","101.1","215.62","488","60.03","9"
"04/10/12 09:21:25","44.9198","108.9","216.11","517","60.0","9"
"04/10/12 09:26:25","44.9288","120.8","216.99","563","60.0","9"
"04/10/12 09:31:24","44.9385","127.0","217.4","587","60.03","9"
"04/10/12 09:36:24","44.9483","130.1","217.82","604","60.03","10"
"04/10/12 09:41:24","44.956","40.3","214.89","389","60.03","9"
"04/10/12 09:46:24","44.9593","48.3","214.33","142","60.03","9"
"04/10/12 09:51:24","44.9627","43.6","214.39","132","60.0","8"
"04/10/12 09:56:25","44.9665","47.5","213.82","149","60.03","8"
"04/10/12 10:01:23","44.9703","44.4","213.42","367","60.0","8"
"04/10/12 10:06:25","44.9742","39.3","213.61","308","60.03","8"
"04/10/12 10:11:23","44.9781","47.5","215.12","315","60.0","7"
"04/10/12 10:16:24","44.982","56.3","213.97","377","60.0","8"
"04/10/12 10:21:24","44.986","58.0","213.79","315","60.0","7"
"04/10/12 10:26:24","44.9899","54.2","214.43","372","60.03","7"
"04/10/12 10:31:24","44.9939","43.2","214.9","292","60.0","7"
"04/10/12 10:36:23","44.9977","45.2","214.57","218","60.03","7"
"04/10/12 10:41:24","45.0016","65.3","214.6","137","60.03","7"
"04/10/12 10:46:24","45.0055","45.4","214.2","294","60.03","8"
"04/10/12 10:51:24","45.0094","56.3","215.39","329","60.03","7"
"04/10/12 10:56:25","45.0133","42.9","214.68","358","60.03","8"
"04/10/12 11:01:25","45.0172","44.7","215.49","111","60.0","8"
"04/10/12 11:06:24","45.0211","42.1","215.62","114","60.0","8"
"04/10/12 11:11:24","45.0248","50.3","214.56","104","60.03","8"
"04/10/12 11:16:25","45.0279","42.7","214.8","235","60.03","8"
"04/10/12 11:21:24","45.0308","35.7","215.16","102","60.03","8"
"04/10/12 11:26:25","45.0342","51.9","215.53","155","60.03","7"
"04/10/12 11:31:25","45.0381","47.3","214.34","218","60.0","7"
"04/10/12 11:36:24","45.042","50.4","214.21","350","60.03","7"
"04/10/12 11:41:25","45.0483","106.1","215.68","501","60.03","7"
"04/10/12 11:46:24","45.0572","140.5","216.98","648","60.03","8"
"04/10/12 11:51:24","45.0696","160.0","216.7","731","60.03","9"
"04/10/12 11:56:25","45.0819","155.2","217.18","715","60.07","10"
"04/10/12 12:01:24","45.0935","168.1","216.95","766","60.0","11"
"04/10/12 12:06:25","45.1072","192.6","217.15","870","60.0","11"
"04/10/12 12:11:25","45.1199","135.9","216.72","626","60.0","11"
"04/10/12 12:16:24","45.1332","147.6","216.84","678","60.0","11"
"04/10/12 12:21:24","45.1423","81.0","215.2","395","60.0","11"
"04/10/12 12:26:24","45.1513","116.1","215.88","549","60.03","11"
"04/10/12 12:31:24","45.1572","47.5","214.71","78","60.07","9"
"04/10/12 12:36:24","45.1611","61.7","213.75","344","60.03","9"
"04/10/12 12:41:25","45.165","40.2","215.05","165","60.03","8"
"04/10/12 12:46:24","45.1679","39.1","213.46","263","60.03","8"
"04/10/12 12:51:23","45.1708","36.8","213.98","97","60.03","7"
"04/10/12 12:56:24","45.1742","50.6","213.03","157","60.03","7"
"04/10/12 13:01:24","45.178","57.8","215.25","114","60.0","7"
"04/10/12 13:06:24","45.1819","52.0","215.39","299","60.03","7"
"04/10/12 13:11:24","45.1858","60.6","214.95","318","60.03","7"
"04/10/12 13:16:25","45.1916","89.6","215.85","432","60.0","7"
"04/10/12 13:21:24","45.1979","75.3","215.42","375","60.03","7"
"04/10/12 13:26:24","45.2037","76.6","215.4","374","60.03","8"
"04/10/12 13:31:24","45.2117","130.5","218.18","601","60.03","8"
"04/10/12 13:36:23","45.2212","106.4","217.56","503","60.03","9"
"04/10/12 13:41:24","45.2282","87.8","216.93","422","60.07","8"
"04/10/12 13:46:25","45.2392","139.5","217.71","643","60.0","9"
"04/10/12 13:51:23","45.2507","165.5","218.47","745","60.03","10"
"04/10/12 13:56:25","45.2618","146.4","218.53","669","60.03","11"
"04/10/12 14:01:25","45.2692","81.0","215.93","398","60.0","9"
"04/10/12 14:06:24","45.2763","73.9","215.45","365","60.03","9"
"04/10/12 14:11:25","45.2845","99.9","216.49","475","60.03","9"
"04/10/12 14:16:25","45.2918","81.8","216.2","397","60.0","9"
"04/10/12 14:21:24","45.2994","113.9","217.43","537","60.03","9"
"04/10/12 14:26:24","45.307","97.7","216.35","465","60.0","9"
"04/10/12 14:31:24","45.3147","120.0","216.71","563","60.0","9"
"04/10/12 14:36:25","45.3227","105.9","216.62","497","60.03","9"
"04/10/12 14:41:25","45.3304","99.8","216.53","471","60.03","9"
"04/10/12 14:46:23","45.3388","105.1","217.18","495","60.0","9"
"04/10/12 14:51:24","45.3475","121.3","217.2","565","60.03","10"
"04/10/12 14:56:25","45.3591","166.3","218.77","754","60.03","11"
"04/10/12 15:01:24","45.3711","157.5","218.31","719","60.03","11"
"04/10/12 15:06:25","45.3825","149.0","217.67","680","60.0","11"
"04/10/12 15:11:25","45.3934","137.8","217.72","637","60.03","11"
"04/10/12 15:16:24","45.404","134.8","218.41","623","60.03","11"
"04/10/12 15:21:24","45.4144","132.4","218.58","611","60.03","11"
"04/10/12 15:26:24","45.4245","130.7","218.2","602","60.0","11"
"04/10/12 15:31:24","45.4347","122.5","217.31","572","60.03","11"
"04/10/12 15:36:25","45.444","106.8","217.04","504","60.03","11"
"04/10/12 15:41:24","45.4531","119.2","217.3","556","60.07","11"
"04/10/12 15:46:25","45.4622","118.5","216.78","556","60.0","11"
"04/10/12 15:51:25","45.4714","115.8","217.43","543","60.03","11"
"04/10/12 15:56:24","45.4802","113.3","217.27","534","60.07","11"
"04/10/12 16:01:25","45.4889","106.9","216.89","505","60.03","10"
"04/10/12 16:06:23","45.4967","97.3","216.36","462","60.03","10"
"04/10/12 16:11:24","45.5046","104.4","216.86","497","60.03","10"
"04/10/12 16:16:25","45.5123","70.8","216.15","350","60.0","10"
"04/10/12 16:21:24","45.5195","94.9","216.3","457","60.03","10"
"04/10/12 16:26:24","45.5266","90.8","216.57","436","60.03","10"
"04/10/12 16:31:25","45.5335","87.4","216.76","425","60.03","10"
"04/10/12 16:36:24","45.54","78.7","216.41","382","60.03","10"
"04/10/12 16:41:25","45.5458","76.8","215.88","379","60.03","9"
"04/10/12 16:46:24","45.5515","75.0","215.74","370","60.03","9"
"04/10/12 16:51:25","45.5572","72.1","215.92","359","60.03","9"
"04/10/12 16:56:25","45.5626","67.2","215.82","337","60.03","9"
"04/10/12 17:01:24","45.5677","63.0","215.2","319","60.03","9"
"04/10/12 17:06:24","45.5718","56.0","215.4","245","60.03","9"
"04/10/12 17:11:24","45.5758","54.3","215.94","235","60.03","9"
"04/10/12 17:16:24","45.5796","56.5","215.7","105","60.03","9"
"04/10/12 17:21:23","45.5832","39.1","215.17","101","60.0","9"
"04/10/12 17:26:24","45.5864","35.1","215.75","124","60.03","9"
"04/10/12 17:31:25","45.5893","35.9","215.11","148","60.03","9"
"04/10/12 17:36:23","45.5918","34.2","213.24","151","60.03","9"
"04/10/12 17:41:24","45.594","23.7","214.95","188","60.03","9"
"04/10/12 17:46:25","45.5958","31.3","214.99","112","60.03","8"
"04/10/12 17:51:25","45.5974","17.5","214.95","171","60.03","8"
"04/10/12 17:56:24","45.5985","14.9","214.67","166","60.07","8"
"04/10/12 18:01:24","45.5995","13.2","214.29","63","60.03","8"
"04/10/12 18:06:25","45.6002","11.6","214.77","1","60.03","8"
"04/10/12 18:11:24","45.6007","12.4","214.03","144","60.03","8"
"04/10/12 18:16:24","45.601","0.0","213.88","0","60.03","8"
"04/10/12 18:21:25","45.6013","0.0","214.09","0","60.03","8"
"04/10/12 18:26:25","45.6015","0.0","213.9","0","60.03","7"
"04/10/12 18:31:24","45.6018","0.0","213.98","0","60.0","7"
"04/10/12 18:41:25","45.6021","13.6","214.0","1","60.0","7"
"04/10/12 18:51:28","45.6021","0.0","214.02","0","60.03","6"
"04/11/12 06:46:25","45.6025","11.0","213.44","1","60.03","4"
"04/11/12 06:51:25","45.6029","6.8","213.15","0","60.03","4"
"04/11/12 06:56:24","45.6035","0.0","211.73","0","60.0","5"
"04/11/12 07:01:24","45.6043","12.1","213.04","60","60.03","5"
"04/11/12 07:06:24","45.6053","12.3","212.08","84","60.07","5"
"04/11/12 07:11:24","45.6066","20.3","214.1","205","60.03","6"
"04/11/12 07:16:25","45.6081","17.4","213.14","14","60.03","6"
"04/11/12 07:21:25","45.6098","14.3","212.37","246","60.03","6"
"04/11/12 07:26:26","45.6113","18.0","212.21","256","60.03","6"
"04/11/12 07:31:24","45.6128","18.4","213.42","236","60.03","6"
"04/11/12 07:36:25","45.615","32.4","214.23","272","60.03","6"
"04/11/12 07:41:25","45.618","42.4","213.85","324","60.03","7"
"04/11/12 07:46:26","45.6215","39.3","214.25","277","60.03","7"
"04/11/12 07:51:24","45.6252","49.0","214.32","98","60.03","7"
"04/11/12 07:56:24","45.6291","51.1","214.49","293","60.03","8"
"04/11/12 08:01:25","45.633","53.0","214.88","125","60.0","8"
"04/11/12 08:06:24","45.6375","71.0","215.29","351","60.0","8"
"04/11/12 08:11:24","45.6426","46.6","214.39","300","60.03","9"
"04/11/12 08:16:24","45.6473","85.0","215.77","411","60.03","9"
"04/11/12 08:21:25","45.6534","91.5","214.91","446","60.03","9"
"04/11/12 08:26:25","45.6605","96.0","216.5","458","60.03","9"
"04/11/12 08:31:25","45.6649","40.6","213.92","135","60.0","9"
"04/11/12 08:36:24","45.6678","33.4","213.8","82","60.03","9"
"04/11/12 08:41:25","45.6704","31.4","213.31","198","60.03","9"
"04/11/12 08:46:25","45.6732","38.7","214.39","282","60.03","9"
"04/11/12 08:51:25","45.6756","13.1","214.24","18","60.03","9"
"04/11/12 08:56:25","45.6773","13.9","214.78","208","60.0","9"
"04/11/12 09:01:25","45.6791","29.0","213.96","47","60.0","9"
"04/11/12 09:06:24","45.6818","29.8","214.62","299","60.0","9"
"04/11/12 09:11:24","45.6837","28.4","214.27","31","60.03","9"
"04/11/12 09:16:24","45.6854","23.6","214.36","22","60.03","9"
"04/11/12 09:21:25","45.6875","33.8","214.41","264","60.0","9"
"04/11/12 09:26:25","45.6902","49.0","214.6","95","60.03","9"
"04/11/12 09:31:25","45.6935","44.0","215.18","164","60.03","9"
"04/11/12 09:36:25","45.6963","47.8","215.38","306","60.03","9"
"04/11/12 09:41:25","45.7001","39.2","215.64","123","60.03","9"
"04/11/12 09:46:25","45.7037","52.7","214.17","401","60.0","9"
"04/11/12 09:51:25","45.707","41.5","213.38","185","60.03","9"
"04/11/12 09:56:24","45.7099","34.8","214.44","190","60.03","9"
"04/11/12 10:01:24","45.7134","53.3","215.17","241","60.0","10"
"04/11/12 10:06:25","45.7168","50.5","213.64","153","60.0","10"
"04/11/12 10:11:25","45.7203","36.8","213.51","94","60.03","10"
"04/11/12 10:16:24","45.724","41.6","215.29","267","60.03","10"
"04/11/12 10:21:24","45.7276","45.4","214.75","200","60.03","10"
"04/11/12 10:26:25","45.7315","49.1","214.7","243","60.07","11"
"04/11/12 10:31:24","45.7353","48.7","215.02","342","60.03","11"
"04/11/12 10:36:24","45.739","57.0","215.4","148","60.03","11"
"04/11/12 10:41:25","45.7428","57.4","214.91","182","60.0","11"
"04/11/12 10:46:26","45.7467","47.2","214.94","344","60.0","11"
"04/11/12 10:51:24","45.7508","91.4","216.67","436","60.0","11"
"04/11/12 10:56:25","45.756","61.5","216.2","312","60.07","11"
"04/11/12 11:01:25","45.7599","44.3","215.24","375","60.0","11"
"04/11/12 11:06:24","45.7643","62.8","215.51","321","60.07","11"
"04/11/12 11:11:25","45.7703","81.7","217.17","396","60.03","11"
"04/11/12 11:16:25","45.7753","47.0","216.08","359","60.03","11"
"04/11/12 11:21:25","45.7792","68.2","215.88","365","60.0","12"
"04/11/12 11:26:25","45.7856","79.5","216.54","390","60.07","12"
"04/11/12 11:31:25","45.7914","160.7","217.94","733","60.03","12"
"04/11/12 11:36:25","45.7982","61.3","216.23","310","60.03","12"
"04/11/12 11:41:24","45.802","61.7","215.81","324","60.07","12"
"04/11/12 11:46:25","45.8069","80.2","216.73","388","60.03","12"
"04/11/12 11:51:25","45.8129","75.2","217.35","367","60.03","12"
"04/11/12 11:56:26","45.8186","64.0","215.5","323","60.03","12"
"04/11/12 12:01:26","45.8239","82.0","215.88","400","60.07","11"
"04/11/12 12:06:24","45.8296","68.0","215.9","343","60.07","11"
"04/11/12 12:11:25","45.8339","39.8","215.73","125","60.03","11"
"04/11/12 12:16:25","45.8395","82.6","216.21","398","60.0","11"
"04/11/12 12:21:26","45.8463","72.5","216.71","362","60.03","11"
"04/11/12 12:26:24","45.8522","76.8","216.08","378","60.03","11"
"04/11/12 12:31:24","45.8566","48.2","215.64","366","60.03","11"
"04/11/12 12:36:25","45.8627","62.2","214.9","319","60.03","11"
"04/11/12 12:41:24","45.8695","85.9","216.52","415","60.03","12"
"04/11/12 12:46:25","45.8742","39.6","216.22","84","60.03","11"
"04/11/12 12:51:26","45.88","80.2","215.31","391","60.0","11"
"04/11/12 12:56:26","45.8857","71.1","215.24","356","60.07","11"
"04/11/12 13:01:25","45.8907","66.2","215.77","329","60.0","11"
"04/11/12 13:06:24","45.8959","72.5","216.39","361","60.03","11"
"04/11/12 13:11:25","45.9011","62.6","215.6","319","60.03","11"
"04/11/12 13:16:25","45.9053","52.2","215.26","131","60.0","11"
"04/11/12 13:21:24","45.9092","40.3","215.11","317","60.03","11"
"04/11/12 13:26:25","45.9131","51.2","215.41","331","60.0","11"
"04/11/12 13:31:26","45.9178","74.6","216.36","365","60.03","11"
"04/11/12 13:36:25","45.924","123.0","217.06","576","60.03","11"
"04/11/12 13:41:25","45.9304","69.4","215.88","346","60.03","11"
"04/11/12 13:46:24","45.9357","64.4","215.79","326","60.07","11"
"04/11/12 13:51:25","45.9412","70.4","216.71","351","60.03","11"
"04/11/12 13:56:25","45.9463","62.2","215.58","315","60.03","11"
"04/11/12 14:01:25","45.9503","52.9","215.52","345","60.03","11"
"04/11/12 14:06:25","45.9542","62.1","216.23","324","60.03","11"
"04/11/12 14:11:26","45.958","55.8","215.33","172","60.0","11"
"04/11/12 14:16:25","45.9619","49.9","215.25","355","60.0","11"
"04/11/12 14:21:25","45.9657","53.2","215.92","143","60.03","11"
"04/11/12 14:26:24","45.9696","60.7","216.43","176","60.03","11"
"04/11/12 14:31:25","45.9734","42.0","216.36","310","60.03","11"
"04/11/12 14:36:24","45.9772","63.3","215.79","164","60.03","11"
"04/11/12 14:41:25","45.9811","59.2","216.09","331","60.03","11"
"04/11/12 14:46:25","45.985","40.1","215.74","236","60.0","11"
"04/11/12 14:51:24","45.9888","56.2","215.86","193","60.03","11"
"04/11/12 14:56:26","45.9927","58.1","215.47","179","60.03","11"
"04/11/12 15:01:24","45.9965","44.4","215.5","398","60.0","11"
"04/11/12 15:06:25","46.0004","43.7","215.46","131","60.03","11"
"04/11/12 15:11:24","46.0043","52.9","215.98","329","60.0","11"
"04/11/12 15:16:25","46.0082","41.1","215.86","374","60.0","10"
"04/11/12 15:21:24","46.012","60.0","216.38","330","60.0","11"
"04/11/12 15:26:24","46.0165","53.1","215.76","330","60.07","11"
"04/11/12 15:31:25","46.0215","69.9","215.86","347","60.0","11"
"04/11/12 15:36:25","46.0262","51.2","215.13","195","60.03","11"
"04/11/12 15:41:24","46.0315","65.8","215.91","329","59.96","11"
"04/11/12 15:46:25","46.0388","148.0","218.5","680","60.07","11"
"04/11/12 15:51:24","46.0444","62.7","214.6","320","60.0","11"
"04/11/12 15:56:25","46.048","39.5","215.45","329","60.03","11"
"04/11/12 16:01:24","46.0551","109.9","217.03","517","60.0","11"
"04/11/12 16:06:25","46.0617","88.5","215.77","429","60.03","11"
"04/11/12 16:11:25","46.0698","100.2","216.59","477","60.03","12"
"04/11/12 16:16:26","46.0769","96.2","216.12","463","60.03","12"
"04/11/12 16:21:24","46.0841","91.5","216.27","436","60.03","13"
"04/11/12 16:26:24","46.0912","88.9","216.72","429","60.03","13"
"04/11/12 16:31:24","46.0979","84.8","215.65","412","60.03","13"
"04/11/12 16:36:26","46.1045","81.5","215.13","401","60.03","13"
"04/11/12 16:41:25","46.1106","77.6","214.84","382","60.0","13"
"04/11/12 16:46:26","46.1166","74.3","214.65","367","60.0","13"
"04/11/12 16:51:25","46.1221","70.6","214.31","350","60.03","12"
"04/11/12 16:56:25","46.1274","65.8","214.63","334","60.03","13"
"04/11/12 17:01:25","46.1324","61.6","214.9","312","60.07","13"
"04/11/12 17:06:25","46.1363","40.4","214.39","240","60.03","13"
"04/11/12 17:11:25","46.1401","41.0","214.65","255","60.03","13"
"04/11/12 17:16:24","46.1439","50.6","214.51","341","60.03","13"
"04/11/12 17:21:25","46.1475","39.7","214.27","270","60.03","12"
"04/11/12 17:26:25","46.1507","44.3","214.81","87","60.03","13"
"04/11/12 17:31:25","46.1535","39.6","214.22","142","60.0","12"
"04/11/12 17:36:26","46.156","28.3","214.24","183","60.03","12"
"04/11/12 17:41:24","46.1581","16.4","214.15","33","60.03","12"
"04/11/12 17:46:25","46.1597","21.3","213.49","19","60.0","11"
"04/11/12 17:51:25","46.1612","14.7","214.29","74","60.03","12"
"04/11/12 17:56:25","46.1625","10.7","214.75","245","60.07","11"
"04/11/12 18:01:24","46.1634","13.3","214.87","81","60.03","11"
"04/11/12 18:06:24","46.1642","5.9","213.99","196","60.03","11"
"04/11/12 18:11:26","46.1647","12.2","213.88","16","60.03","11"
"04/11/12 18:16:25","46.1651","10.9","213.78","36","60.03","11"
"04/11/12 18:21:24","46.1653","0.0","213.9","0","60.03","10"
"04/11/12 18:26:25","46.1656","0.0","213.68","0","60.0","10"
"04/11/12 18:31:25","46.1659","0.0","213.89","0","60.0","10"
"04/11/12 18:36:26","46.1661","0.0","213.47","0","60.0","9"
"04/11/12 18:41:25","46.1663","0.0","214.0","0","60.03","9"
"04/11/12 18:51:25","46.1666","0.0","213.26","0","60.03","9"
"04/12/12 06:51:27","46.1671","12.3","213.44","43","60.03","1"
"04/12/12 06:56:24","46.1677","14.6","213.63","237","60.03","2"
"04/12/12 07:01:24","46.1684","10.7","213.37","18","60.0","2"
"04/12/12 07:06:25","46.1695","12.7","213.51","217","60.03","3"
"04/12/12 07:11:25","46.1707","17.8","213.99","26","60.0","3"
"04/12/12 07:16:26","46.1722","22.0","214.04","25","60.0","4"
"04/12/12 07:21:24","46.174","37.6","213.51","52","60.03","4"
"04/12/12 07:26:25","46.1762","26.1","213.94","262","60.03","5"
"04/12/12 07:31:25","46.1788","41.9","214.33","136","60.0","5"
"04/12/12 07:36:25","46.1818","46.2","214.15","184","60.07","6"
"04/12/12 07:41:25","46.185","45.8","212.95","167","60.03","6"
"04/12/12 07:46:25","46.1886","38.3","213.38","110","60.03","6"
"04/12/12 07:51:25","46.1923","40.1","214.97","374","60.03","7"
"04/12/12 07:56:26","46.1962","48.0","215.41","386","60.03","7"